Location: Holbach
(51.5399°N, 10.6036°E)
Time: 05:53:45
(UTC+00:00)

NOSS 3-2 (A) - Pass Details

Date: 18 September 2020
Orbit: 795 x 1413 km, 63.4° (Epoch: 02 October)

Event Time Altitude Azimuth Distance (km) Brightness Sun altitude
Rises 18:08:56 0° 312° (NW) 3,836 7.8 -7.7°
Reaches altitude 10° 18:11:27 10° 316° (NW) 2,965 7.0 -8.1°
Maximum altitude 18:18:36 66° 38° (NE) 1,327 4.1 -9.2°
Enters shadow 18:26:32 11° 120° (ESE) 3,287 5.6 -10.4°
